Regional Weather Roundup
Issued by NWS State College, PA

Home | Current Version | Previous Version | Graphics & Text | Print | Product List | Glossary Off
Versions: 1 2 3 4 5 6 7 8 9 10 11 12 13 14 15 16 17 18 19 20 21 22 23 24 25 26 27 28 29 30 31 32 33 34 35 36 37 38 39 40 41 42 43 44 45 46 47 48 49 50

000
ASUS41 KCTP 211403
RWRCTP

REGIONAL WEATHER ROUNDUP
NATIONAL WEATHER SERVICE STATE COLLEGE PA
1000 AM EDT MON APR 21 2014

Note: "fair" indicates few or no clouds below 12,000 feet with no
significant weather and/or obstructions to visibility.

* = STATION THAT DOES NOT REPORT PRECIPITATION /E.G. RAIN...SNOW...ETC/
    THUNDER OR FOG.

PAZ002>004-007>009-013>016-020>023-029>032-211500-
WESTERN PENNSYLVANIA

CITY           SKY/WX    TMP DP  RH WIND       PRES   REMARKS
ERIE           SUNNY     64  32  30 S9        30.03F
MEADVILLE      SUNNY     59  32  36 S6        30.06F
FRANKLIN*      SUNNY     57  32  38 S6        30.10F
NEW CASTLE     FAIR      61  33  34 CALM      30.07F
BEAVER COUNTY  SUNNY     63  32  31 SW6       30.07F
BUTLER*        SUNNY     61  34  36 S3        30.10F
PITTSBURGH INT MOSUNNY   61  33  35 VRB3      30.07F
PITTSBURGH     SUNNY     61  32  33 S5        30.08F
INDIANA*       SUNNY     61  34  36 CALM      30.10F
LATROBE        NOT AVBL
WASHINGTON CO* SUNNY     64  34  32 S3        30.10F
$$

PAZ004>006-010>012-017>019-024>028-033>037-041-042-045-046-049>053-211500-
CENTRAL PENNSYLVANIA

CITY           SKY/WX    TMP DP  RH WIND       PRES   REMARKS
BRADFORD       SUNNY     60  28  29 VRB6      30.09F
DUBOIS         SUNNY     58  33  39 VRB3      30.09F
CLEARFIELD     SUNNY     54  34  46 SE3       30.12F
JOHNSTOWN      SUNNY     54  31  41 S7        30.11F
ALTOONA        SUNNY     53  36  52 SW7       30.14F
STATE COLLEGE  SUNNY     54  34  47 S7        30.14F
WILLIAMSPORT   SUNNY     53  31  42 E6        30.15F
SELINSGROVE    SUNNY     53  30  41 VRB7      30.17F
FT INDIANTOWN  MOSUNNY   51  26  38 VRB3      30.18F
CAPITAL CITY   SUNNY     52  27  38 CALM      30.19F
HARRISBURG     MOSUNNY   52  27  38 S3        30.18F
YORK           SUNNY     51  24  34 CALM      30.18F
$$

PAZ038>040-043-044-047-048-054-055-060>062-067>071-211500-
EASTERN PENNSYLVANIA

CITY           SKY/WX    TMP DP  RH WIND       PRES   REMARKS
SCRANTON       SUNNY     51  23  33 W7        30.15F
MOUNT POCONO   SUNNY     51  20  29 W6        30.14F
ALLENTOWN      SUNNY     50  23  34 CALM      30.19F
QUAKERTOWN*    SUNNY     50  21  32 CALM      30.19F
READING        SUNNY     51  15  23 CALM      30.19F
LANCASTER      SUNNY     49  21  33 NW3       30.19F
COATESVILLE    SUNNY     50  18  27 CALM      30.18F
POTTSTOWN      SUNNY     50  26  39 CALM      30.20F
BLUE BELL      SUNNY     54  30  40 CALM      30.18F
DOYLESTOWN     SUNNY     51  25  36 N3        30.17F
WILLOW GROVE   NOT AVBL
NORTH PHILA    SUNNY     53  28  38 E3        30.21F
PHILADELPHIA   MOSUNNY   52  30  43 SE6       30.20F
$$



USA.gov is the U.S. government's official web portal to all federal, state and local government web resources and services.